Jogging pour Heran (Xhoffraix) 18/10/2014 - 4 Km
Place Nom Prénom Temps Vitesse Allure Place. Cat. Cat.
1 REYNDERS SIMON 208 0:17:01 14,1 4:15 1 EG
2 BALLMANN PATRICK 298 0:17:39 13,6 4:24 1 V1
3 ROCHE LORIS 205 0:18:15 13,1 4:33 2 EG
4 VANDEPUTTE AXEL 314 0:18:40 12,9 4:40 3 EG
5 DUVIVIER AURORE 313 0:18:47 12,8 4:41 1 EF
6 WEYCKEN ELISE 206 0:19:07 12,5 4:46 2 EF
7 BOEMER REMY 472 0:19:10 12,5 4:47 4 EG
8 MARICHAL ROBIN 301 0:19:12 12,5 4:48 5 EG
9 SOLHEID CHLOE 296 0:19:16 12,4 4:49 3 EF
10 QUETSCH EVAN 309 0:19:32 12,3 4:53 6 EG
11 DEWALQUE VINCENT 312 0:19:44 12,2 4:56 1 S
12 MARCHAL LYDIE 300 0:20:44 11,6 5:11 4 EF
13 GRENIER NICOLAS 475 0:20:55 11,5 5:13 7 EG
14 VANDEPUTTE CHANEL 470 0:20:58 11,4 5:14 5 EF
15 VANDEPUTTE EDDY 207 0:20:59 11,4 5:14 2 V1
16 HALLEUX LEA 297 0:22:04 10,9 5:31 6 EF
17 BALLMANN MANON 299 0:22:33 10,6 5:38 7 EF
18 ALBERT MATHILDE 310 0:22:41 10,6 5:40 8 EF
19 BRAGARD JUSTINE 305 0:22:50 10,5 5:42 9 EF
20 MARICHAL CELINE 304 0:23:06 10,4 5:46 1 A1
21 DAHM ROMAIN 307 0:23:41 10,1 5:55 8 EG
22 SIMON MAGALI 308 0:23:47 10,1 5:56 2 A1
23 HEINEN SARAH 302 0:24:41 9,7 6:10 10 EF
24 GERARDY FLORENCE 474 0:24:44 9,7 6:11 3 A1
25 EUBELEN MARIE 471 0:25:13 9,5 6:18 1 D
26 SIMON MANUELLA 473 0:25:22 9,5 6:20 2 D
27 BEHLING MICKAELLE 24 0:26:30 9,1 6:37 3 D
28 HEINEN CHRISTINE 303 0:26:36 9,0 6:39 4 A1